Regional Weather Roundup
Issued by NWS

Home | Current Version | Previous Version | Text Only | Print | Product List | Glossary Off
Versions: 1 2 3 4 5 6 7 8 9 10 11 12 13 14 15 16 17 18 19 20 21 22 23 24 25 26 27 28 29 30 31 32 33 34 35 36 37 38 39 40 41 42 43 44 45 46 47 48 49 50

772
ASUS43 KMKX 141259
RWRWI

WISCONSIN REGIONAL WEATHER ROUNDUP
NATIONAL WEATHER SERVICE MILWAUKEE/SULLIVAN WI
700 AM CST SUN FEB 14 2016

NOTE: "FAIR" INDICATES FEW OR NO CLOUDS BELOW 12,000 FEET WITH NO
SIGNIFICANT WEATHER AND/OR OBSTRUCTIONS TO VISIBILITY.

WIZ001-002-006>008-014>016-023>028-141400-
NORTHWEST WISCONSIN

CITY           SKY/WX    TMP DP  RH WIND       PRES   REMARKS
SUPERIOR ARPT  CLOUDY    -1  -9  69 NE5       30.17F WCI -12
ASHLAND        CLOUDY   -16 -21  78 CALM      30.20F
HAYWARD        CLOUDY     1 -12  54 S10G16    30.14F WCI -15
SIREN          CLOUDY     7  -7  52 SE5       30.11F WCI  -2
CUMBERLAND     CLOUDY     3  -9  55 SE12      30.11F WCI -13
RICE LAKE      CLOUDY     4  -8  56 E9        30.16F WCI -11
CHETEK         CLOUDY     3  -8  58 SE7       30.16F WCI  -9
LADYSMITH      CLOUDY    -5 -14  65 E9        30.20F WCI -22
EAU CLAIRE     NOT AVBL
MENOMONIE      CLOUDY     7  -5  57 E7        30.16F WCI  -5
NEW RICHMOND   CLOUDY     7  -4  60 SE9       30.11F WCI  -7
OSCEOLA        FLURRIES   9  -2  62 SE13G20   30.13F WCI  -7
$$

WIZ003>005-009-010-017-018-141400-
NORTH CENTRAL WISCONSIN

CITY           SKY/WX    TMP DP  RH WIND       PRES   REMARKS
MANITOWISH WTR PTCLDY   -20 -25  78 SE3       30.18F
ARBOR VITAE    CLOUDY   -12 -18  75 SE5       30.19F WCI -24
WOODRUFF       CLOUDY   -12 -18  75 SE5       30.19F WCI -24
RHINELANDER    CLOUDY   -17 -22  78 E5        30.20F WCI -30
EAGLE RIVER    CLOUDY   -21 -29  68 CALM      30.20F
LAND O LAKES   CLOUDY   -27 -33  70 CALM      30.20F
PHILLIPS       CLOUDY   -22 -28  73 CALM      30.18F
TOMAHAWK       CLOUDY   -24 -30  73 CALM      30.21F
MEDFORD        CLOUDY    -6 -14  69 SE8       30.18F WCI -22
MERRILL        CLOUDY   -20 -26  75 CALM      30.24F
$$

WIZ029-030-035-036-043>047-141400-
CENTRAL WISCONSIN

CITY           SKY/WX    TMP DP  RH WIND       PRES   REMARKS
WAUSAU         PTCLDY   -11 -17  75 SE5       30.23F WCI -23
MOSINEE        CLEAR     -6 -13  71 E6        30.24F WCI -18
MARSHFIELD     CLOUDY    -5 -14  65 E7        30.19F WCI -19
STEVENS POINT  CLOUDY   -12 -18  75 CALM      30.27F
WAUPACA        CLOUDY   -14 -20  74 CALM      30.33F
WAUTOMA        NOT AVBL
WISC RAPIDS    CLOUDY    -6 -14  68 E8        30.26F WCI -21
CAMP DOUGLAS   CLOUDY     2  -4  74 E12       30.21F WCI -14
$$

WIZ011>013-019>022-031-037>040-048>050-141400-
NORTHEAST WISCONSIN

CITY           SKY/WX    TMP DP  RH WIND       PRES   REMARKS
ANTIGO         CLOUDY   -11 -16  77 SE6       30.24F WCI -25
SHAWANO        CLOUDY    -9 -15  77 CALM      30.35F
OCONTO         CLOUDY   -15 -19  80 CALM      30.37F
STURGEON BAY   CLOUDY    -4 -11  71 CALM      30.36F
GREEN BAY      CLOUDY   -12 -16  82 CALM      30.35F
MANITOWOC      NOT AVBL
APPLETON       PTCLDY    -2 -11  65 CALM      30.30F
CLINTONVILLE   CLOUDY   -13 -18  77 NE3       30.34F
OSHKOSH        CLOUDY    -6 -12  75 CALM      30.32F
$$

WIZ032>034-041-042-053>061-141400-
SOUTHWEST WISCONSIN

CITY           SKY/WX    TMP DP  RH WIND       PRES   REMARKS
LA CROSSE      CLOUDY    12  -1  56 SE8       30.19F WCI   0
SPARTA         CLOUDY     9  -2  62 E7        30.20F WCI  -3
VIROQUA        CLOUDY     9  -1  65 SE16G22   30.13F WCI  -9
BOSCOBEL       CLOUDY    10   2  69 NE5       30.22F WCI   2
PRAIRIE DU CHI MIX PCPN  13   7  74 E12       30.20F WCI   0
PLATTEVILLE    CLOUDY    13   8  81 SE14      30.19F WCI  -2
$$

WIZ056-057-062-063-064-067-068-141400-
SOUTH CENTRAL WISCONSIN

CITY           SKY/WX    TMP DP  RH WIND       PRES   REMARKS
REEDSBURG      CLOUDY     6  -3  66 NE3       30.24F
BARABOO/DELLS  CLOUDY     3  -5  69 E6        30.25F WCI  -8
LONE ROCK      NOT AVBL
MINERAL POINT  FLURRIES  14   5  67 SE12G20   30.17F WCI   0
MADISON        CLOUDY     9  -1  64 SE9       30.26F WCI  -4
MIDDLETON      CLOUDY    12   2  64 SE7       30.26F WCI   1
WATERTOWN      CLOUDY     6  -4  64 SE5       30.30F WCI  -3
MONROE         CLOUDY    12   5  73 E9        30.22F WCI   0
JANESVILLE     CLOUDY    16   3  57 SE8       30.28F WCI   5
$$

WIZ051-052-058>065-066-070>072-141400-
SOUTHEAST WISCONSIN

CITY           SKY/WX    TMP DP  RH WIND       PRES   REMARKS
MILWAUKEE      CLOUDY    10  -2  58 S6        30.35F WCI   0
WAUKESHA       CLEAR      0  -8  71 CALM      30.33F
MILWAUKEE/TIMM NOT AVBL
RACINE         CLOUDY    11  -1  58 SW7       30.36F WCI   0
BURLINGTON     CLOUDY     0  -4  82 CALM      30.33F
KENOSHA        CLOUDY     8  -1  66 S7        30.34F WCI  -3
FOND DU LAC    CLOUDY    -3 -11  68 CALM      30.32F
SHEBOYGAN      CLOUDY    -2  -8  76 CALM      30.34F
WEST BEND      CLOUDY    -4  -9  77 CALM      30.33F
JUNEAU         CLOUDY     0  -7  71 SE7       30.31F WCI -13
$$

LSZ147-162-141400-
LAKE SUPERIOR

STATION/POSITION TIME  TEMP    WIND        PRES    WAVE
                       AIR SEA DIR/SP/G            HT/PER
                 (UTC) (F)     (DEG/KT/KT) (MB)    (FT/S)
DEVILS ISLAND    1200    4     160/  9/ 13 1025.9F
$$

LMZ867-665-643>646-141400-
LAKE MICHIGAN

STATION/POSITION TIME  TEMP    WIND        PRES    WAVE
                       AIR SEA DIR/SP/G            HT/PER
                 (UTC) (F)     (DEG/KT/KT) (MB)    (FT/S)
CHAMBERS ISLAND  1100   -4      CALM  /  2 1028.8S
SISTER BAY       1219   -2        CALM       N/A
ALGOMA LAKESHORE 1041             CALM       N/A
KEWAUNEE LAKESHO 1200   -5     290/  5/  6 1027.8F
SHEBOYGAN LAKESH 1200    7     270/  5/  6 1030.3F
PORT WASHINGTON  1140    6     250/  4/  5 1029.5F
MILWAUKEE LAKESH 1210   12     230/  8/  9   N/A
KENOSHA   LAKESH 1200   12     210/  9/ 12 1028.1F
$$

TC  - TEMPERATURE IN CELSIUS
VSB - VISIBILITY IN STATUTE MILES
WCI - WIND CHILL INDEX
HX  - HEAT INDEX





USA.gov is the U.S. government's official web portal to all federal, state and local government web resources and services.